Time,TemperatureF,DewpointF,PressureIn,WindDirection,WindDirectionDegrees,WindSpeedMPH,WindSpeedGustMPH,Humidity,HourlyPrecipIn,Conditions,Clouds,dailyrainin,SoftwareType,DateUTC
2013-04-09 00:09:00,42.0,31.0,29.98,West,274,0.0,-999.0,66,-99.99,,,0.00,weatherlink.com 1.10,2013-04-09 04:09:00,
2013-04-09 00:24:00,41.5,30.0,29.98,West,274,0.0,-999.0,65,-99.99,,,0.00,weatherlink.com 1.10,2013-04-09 04:24:00,
2013-04-09 00:39:00,41.8,32.0,29.98,West,274,0.0,-999.0,67,-99.99,,,0.00,weatherlink.com 1.10,2013-04-09 04:39:00,
2013-04-09 00:54:00,41.6,31.0,29.97,West,274,0.0,-999.0,67,-99.99,,,0.00,weatherlink.com 1.10,2013-04-09 04:54:00,
2013-04-09 01:09:00,42.4,33.0,29.95,West,274,0.0,-999.0,69,-99.99,,,0.00,weatherlink.com 1.10,2013-04-09 05:09:00,
2013-04-09 01:24:00,41.8,36.0,29.95,West,274,0.0,-999.0,79,-99.99,,,0.00,weatherlink.com 1.10,2013-04-09 05:24:00,
2013-04-09 01:39:00,41.8,35.0,29.94,West,274,0.0,-999.0,78,-99.99,,,0.00,weatherlink.com 1.10,2013-04-09 05:39:00,
2013-04-09 01:54:00,41.8,35.0,29.93,West,274,0.0,-999.0,77,-99.99,,,0.00,weatherlink.com 1.10,2013-04-09 05:54:00,
2013-04-09 02:09:00,42.2,36.0,29.92,West,274,0.0,-999.0,78,-99.99,,,0.00,weatherlink.com 1.10,2013-04-09 06:09:00,
2013-04-09 02:24:00,42.0,34.0,29.92,West,274,1.0,-999.0,74,-99.99,,,0.00,weatherlink.com 1.10,2013-04-09 06:24:00,
2013-04-09 02:39:00,40.2,36.0,29.93,NNE,22,0.0,-999.0,85,-99.99,,,0.02,weatherlink.com 1.10,2013-04-09 06:39:00,
2013-04-09 02:54:00,39.6,38.0,29.92,NE,46,0.0,-999.0,92,-99.99,,,0.02,weatherlink.com 1.10,2013-04-09 06:54:00,
2013-04-09 03:10:00,40.7,39.0,29.91,SE,140,0.0,-999.0,95,-99.99,,,0.06,weatherlink.com 1.10,2013-04-09 07:10:00,
2013-04-09 03:25:00,41.3,40.0,29.89,ENE,62,0.0,-999.0,95,-99.99,,,0.07,weatherlink.com 1.10,2013-04-09 07:25:00,
2013-04-09 03:40:00,41.4,40.0,29.89,ENE,62,0.0,-999.0,96,-99.99,,,0.08,weatherlink.com 1.10,2013-04-09 07:40:00,
2013-04-09 03:55:00,41.3,40.0,29.89,East,95,1.0,-999.0,96,-99.99,,,0.08,weatherlink.com 1.10,2013-04-09 07:55:00,
2013-04-09 04:10:00,41.6,41.0,29.88,NE,46,0.0,-999.0,96,-99.99,,,0.08,weatherlink.com 1.10,2013-04-09 08:10:00,
2013-04-09 04:25:00,42.3,42.0,29.86,NE,46,0.0,-999.0,97,-99.99,,,0.09,weatherlink.com 1.10,2013-04-09 08:25:00,
2013-04-09 04:55:00,42.2,41.0,29.84,NE,46,0.0,-999.0,96,-99.99,,,0.09,weatherlink.com 1.10,2013-04-09 08:55:00,
2013-04-09 05:10:00,41.9,41.0,29.83,NE,46,0.0,-999.0,97,-99.99,,,0.09,weatherlink.com 1.10,2013-04-09 09:10:00,
2013-04-09 05:25:00,41.9,41.0,29.84,NE,46,0.0,-999.0,97,-99.99,,,0.09,weatherlink.com 1.10,2013-04-09 09:25:00,
2013-04-09 05:40:00,40.9,40.0,29.84,North,5,1.0,-999.0,96,-99.99,,,0.09,weatherlink.com 1.10,2013-04-09 09:40:00,
2013-04-09 06:10:00,40.4,40.0,29.84,NNE,26,1.0,-999.0,97,-99.99,,,0.11,weatherlink.com 1.10,2013-04-09 10:10:00,
2013-04-09 06:25:00,41.1,41.0,29.84,NNE,26,0.0,-999.0,100,-99.99,,,0.11,weatherlink.com 1.10,2013-04-09 10:25:00,
2013-04-09 06:40:00,41.3,41.0,29.83,NNE,26,0.0,-999.0,98,-99.99,,,0.11,weatherlink.com 1.10,2013-04-09 10:40:00,
2013-04-09 06:55:00,41.3,41.0,29.83,NNE,26,0.0,-999.0,98,-99.99,,,0.11,weatherlink.com 1.10,2013-04-09 10:55:00,
2013-04-09 07:10:00,42.0,42.0,29.83,NNE,26,0.0,-999.0,98,-99.99,,,0.11,weatherlink.com 1.10,2013-04-09 11:10:00,
2013-04-09 07:25:00,42.6,42.0,29.83,NNE,26,0.0,-999.0,98,-99.99,,,0.11,weatherlink.com 1.10,2013-04-09 11:25:00,
2013-04-09 07:40:00,43.0,43.0,29.82,NNE,26,0.0,-999.0,98,-99.99,,,0.11,weatherlink.com 1.10,2013-04-09 11:40:00,
2013-04-09 07:55:00,43.1,43.0,29.82,NNE,26,0.0,-999.0,98,-99.99,,,0.11,weatherlink.com 1.10,2013-04-09 11:55:00,
2013-04-09 08:10:00,43.3,43.0,29.82,NNE,26,0.0,-999.0,98,-99.99,,,0.11,weatherlink.com 1.10,2013-04-09 12:10:00,
2013-04-09 08:25:00,43.1,43.0,29.82,NNE,26,0.0,-999.0,98,-99.99,,,0.11,weatherlink.com 1.10,2013-04-09 12:25:00,
2013-04-09 08:40:00,43.1,43.0,29.82,NNE,26,0.0,-999.0,98,-99.99,,,0.11,weatherlink.com 1.10,2013-04-09 12:40:00,
2013-04-09 08:55:00,43.2,43.0,29.82,NNE,26,0.0,-999.0,98,-99.99,,,0.11,weatherlink.com 1.10,2013-04-09 12:55:00,
2013-04-09 09:10:00,43.3,43.0,29.82,NNE,25,0.0,-999.0,98,-99.99,,,0.12,weatherlink.com 1.10,2013-04-09 13:10:00,
2013-04-09 09:25:00,43.5,43.0,29.83,South,182,0.0,-999.0,98,-99.99,,,0.12,weatherlink.com 1.10,2013-04-09 13:25:00,
2013-04-09 09:40:00,43.6,43.0,29.83,SSE,158,0.0,-999.0,97,-99.99,,,0.13,weatherlink.com 1.10,2013-04-09 13:40:00,
2013-04-09 09:55:00,43.8,43.0,29.84,South,189,0.0,-999.0,97,-99.99,,,0.13,weatherlink.com 1.10,2013-04-09 13:55:00,
2013-04-09 10:10:00,43.7,43.0,29.84,WSW,251,2.0,-999.0,97,-99.99,,,0.13,weatherlink.com 1.10,2013-04-09 14:10:00,
2013-04-09 10:25:00,43.8,43.0,29.86,SSW,213,1.0,-999.0,97,-99.99,,,0.13,weatherlink.com 1.10,2013-04-09 14:25:00,
2013-04-09 10:40:00,43.8,43.0,29.86,WNW,284,1.0,-999.0,97,-99.99,,,0.13,weatherlink.com 1.10,2013-04-09 14:40:00,
2013-04-09 10:55:00,44.0,43.0,29.86,West,259,0.0,-999.0,97,-99.99,,,0.13,weatherlink.com 1.10,2013-04-09 14:55:00,
2013-04-09 11:10:00,44.0,43.0,29.86,SSE,153,1.0,-999.0,97,-99.99,,,0.13,weatherlink.com 1.10,2013-04-09 15:10:00,
2013-04-09 11:25:00,44.1,43.0,29.88,SSE,153,1.0,-999.0,97,-99.99,,,0.13,weatherlink.com 1.10,2013-04-09 15:25:00,
2013-04-09 11:40:00,44.1,44.0,29.88,South,187,0.0,-999.0,98,-99.99,,,0.13,weatherlink.com 1.10,2013-04-09 15:40:00,
2013-04-09 11:55:00,44.2,43.0,29.89,South,190,1.0,-999.0,97,-99.99,,,0.13,weatherlink.com 1.10,2013-04-09 15:55:00,
2013-04-09 12:10:00,44.0,43.0,29.89,WSW,243,0.0,-999.0,97,-99.99,,,0.13,weatherlink.com 1.10,2013-04-09 16:10:00,
2013-04-09 12:25:00,43.3,43.0,29.91,West,281,0.0,-999.0,97,-99.99,,,0.13,weatherlink.com 1.10,2013-04-09 16:25:00,
2013-04-09 12:40:00,42.9,42.0,29.93,South,180,0.0,-999.0,97,-99.99,,,0.13,weatherlink.com 1.10,2013-04-09 16:40:00,
2013-04-09 12:55:00,42.9,42.0,29.93,WSW,258,0.0,-999.0,97,-99.99,,,0.13,weatherlink.com 1.10,2013-04-09 16:55:00,
2013-04-09 13:10:00,42.7,41.0,29.94,SW,219,1.0,-999.0,95,-99.99,,,0.13,weatherlink.com 1.10,2013-04-09 17:10:00,
2013-04-09 13:25:00,42.7,41.0,29.95,WNW,293,2.0,-999.0,92,-99.99,,,0.13,weatherlink.com 1.10,2013-04-09 17:25:00,
2013-04-09 13:40:00,42.4,40.0,29.95,WSW,241,0.0,-999.0,90,-99.99,,,0.13,weatherlink.com 1.10,2013-04-09 17:40:00,
2013-04-09 13:55:00,42.2,40.0,29.96,SW,221,0.0,-999.0,92,-99.99,,,0.13,weatherlink.com 1.10,2013-04-09 17:55:00,
2013-04-09 14:10:00,42.0,39.0,29.95,NNW,344,2.0,-999.0,90,-99.99,,,0.13,weatherlink.com 1.10,2013-04-09 18:10:00,
2013-04-09 14:26:00,42.0,39.0,29.96,WNW,290,1.0,-999.0,88,-99.99,,,0.13,weatherlink.com 1.10,2013-04-09 18:26:00,
2013-04-09 15:11:00,43.1,39.0,29.97,NNW,327,2.0,-999.0,86,-99.99,,,0.13,weatherlink.com 1.10,2013-04-09 19:11:00,
2013-04-09 15:41:00,43.1,39.0,29.97,NW,307,1.0,-999.0,85,-99.99,,,0.13,weatherlink.com 1.10,2013-04-09 19:41:00,
2013-04-09 15:56:00,42.9,38.0,29.97,WSW,247,0.0,-999.0,84,-99.99,,,0.13,weatherlink.com 1.10,2013-04-09 19:56:00,
2013-04-09 16:26:00,42.3,38.0,29.97,SSW,193,0.0,-999.0,85,-99.99,,,0.13,weatherlink.com 1.10,2013-04-09 20:26:00,
2013-04-09 17:11:00,42.5,39.0,29.96,WSW,240,0.0,-999.0,86,-99.99,,,0.13,weatherlink.com 1.10,2013-04-09 21:11:00,
2013-04-09 17:26:00,43.1,39.0,29.98,WSW,241,0.0,-999.0,84,-99.99,,,0.13,weatherlink.com 1.10,2013-04-09 21:26:00,
2013-04-09 17:41:00,43.3,39.0,29.99,WSW,245,0.0,-999.0,83,-99.99,,,0.13,weatherlink.com 1.10,2013-04-09 21:41:00,
2013-04-09 18:11:00,43.2,38.0,30.00,SSW,192,0.0,-999.0,83,-99.99,,,0.13,weatherlink.com 1.10,2013-04-09 22:11:00,
2013-04-09 18:26:00,42.8,38.0,29.99,SSW,192,0.0,-999.0,83,-99.99,,,0.13,weatherlink.com 1.10,2013-04-09 22:26:00,
2013-04-09 18:41:00,42.3,38.0,29.99,SSW,192,0.0,-999.0,84,-99.99,,,0.13,weatherlink.com 1.10,2013-04-09 22:41:00,
2013-04-09 19:11:00,41.2,37.0,29.99,SSW,192,0.0,-999.0,86,-99.99,,,0.13,weatherlink.com 1.10,2013-04-09 23:11:00,
2013-04-09 19:26:00,40.7,37.0,29.99,SSW,192,0.0,-999.0,87,-99.99,,,0.13,weatherlink.com 1.10,2013-04-09 23:26:00,
2013-04-09 20:11:00,38.2,36.0,30.01,SSW,192,0.0,-999.0,90,-99.99,,,0.13,weatherlink.com 1.10,2013-04-10 00:11:00,
2013-04-09 20:26:00,37.3,35.0,30.02,SSW,192,0.0,-999.0,92,-99.99,,,0.13,weatherlink.com 1.10,2013-04-10 00:26:00,
2013-04-09 20:41:00,36.9,35.0,30.02,SSW,192,0.0,-999.0,93,-99.99,,,0.13,weatherlink.com 1.10,2013-04-10 00:41:00,
2013-04-09 20:56:00,36.9,35.0,30.02,SSW,192,0.0,-999.0,94,-99.99,,,0.13,weatherlink.com 1.10,2013-04-10 00:56:00,
2013-04-09 21:11:00,36.8,35.0,30.02,SSW,192,0.0,-999.0,94,-99.99,,,0.13,weatherlink.com 1.10,2013-04-10 01:11:00,
2013-04-09 21:41:00,36.9,36.0,30.01,SSW,192,0.0,-999.0,95,-99.99,,,0.13,weatherlink.com 1.10,2013-04-10 01:41:00,
2013-04-09 21:57:00,37.1,36.0,30.00,SSW,192,0.0,-999.0,95,-99.99,,,0.13,weatherlink.com 1.10,2013-04-10 01:57:00,
2013-04-09 22:11:00,37.4,36.0,30.00,SSW,192,0.0,-999.0,96,-99.99,,,0.13,weatherlink.com 1.10,2013-04-10 02:11:00,
2013-04-09 22:26:00,37.6,36.0,29.99,SSW,192,0.0,-999.0,95,-99.99,,,0.13,weatherlink.com 1.10,2013-04-10 02:26:00,
2013-04-09 22:41:00,37.8,37.0,29.99,SSW,192,0.0,-999.0,95,-99.99,,,0.13,weatherlink.com 1.10,2013-04-10 02:41:00,
2013-04-09 22:56:00,38.1,37.0,29.98,SSW,192,0.0,-999.0,95,-99.99,,,0.13,weatherlink.com 1.10,2013-04-10 02:56:00,
2013-04-09 23:11:00,38.6,37.0,29.97,SSW,192,0.0,-999.0,95,-99.99,,,0.13,weatherlink.com 1.10,2013-04-10 03:11:00,
2013-04-09 23:26:00,38.6,37.0,29.96,SSW,192,0.0,-999.0,95,-99.99,,,0.14,weatherlink.com 1.10,2013-04-10 03:26:00,
2013-04-09 23:41:00,38.3,37.0,29.95,SSW,192,0.0,-999.0,96,-99.99,,,0.14,weatherlink.com 1.10,2013-04-10 03:41:00,
2013-04-09 23:56:00,38.2,37.0,29.94,SSW,192,0.0,-999.0,96,-99.99,,,0.14,weatherlink.com 1.10,2013-04-10 03:56:00,